Location: Newark
(43.4306°N, 0.3089°E)
Time: 21:52:34
(UTC+00:00)

Vanguard 2 Rocket - Visible Passes

Search period start: 24 August 2019 00:00
Search period end: 03 September 2019 00:00
Orbit: 553 x 3327 km, 32.9° (Epoch: 24 August)

Date Brightness Start Highest point End Pass type
(mag) Time Alt. Az. Time Alt. Az. Time Alt. Az.
24 Aug 9.1 02:06:46 35° S 02:10:07 40° SSE 02:25:41 10° E visible
24 Aug 9.5 04:12:34 13° WSW 04:25:18 58° S 04:44:40 10° ESE visible
25 Aug 9.4 01:10:28 30° SE 01:10:28 30° SE 01:22:39 10° E visible
25 Aug 9.2 03:16:16 26° SW 03:24:09 54° SSE 03:42:17 10° E visible
26 Aug 9.9 00:14:11 17° ESE 00:14:11 17° ESE 00:19:08 10° E visible
26 Aug 8.8 02:19:58 39° SSW 02:23:31 46° SSE 02:39:40 10° E visible
26 Aug 9.5 04:25:46 10° WSW 04:39:02 58° S 04:58:17 10° ESE visible
27 Aug 9.0 01:23:42 37° SSE 01:23:42 37° SSE 01:36:54 10° E visible
27 Aug 9.2 03:29:30 24° WSW 03:37:51 56° S 03:56:02 10° ESE visible
28 Aug 9.6 00:27:27 23° ESE 00:27:27 23° ESE 00:33:59 10° E visible
28 Aug 8.7 02:33:14 40° SSW 02:37:07 51° SSE 02:53:30 10° E visible
28 Aug 9.5 04:39:49 10° W 04:52:47 55° S 05:11:43 10° ESE visible
29 Aug 8.8 01:37:01 43° SSE 01:37:01 43° SSE 01:50:54 10° E visible
29 Aug 9.2 03:42:49 21° WSW 03:51:39 55° S 04:09:37 10° ESE visible
30 Aug 9.4 00:40:50 27° ESE 00:40:50 27° ESE 00:48:18 10° E visible
30 Aug 8.6 02:46:37 39° SW 02:50:53 53° S 03:07:14 10° ESE visible
30 Aug 10.1 23:44:40 12° E 23:44:40 12° E 23:45:39 10° E visible
31 Aug 8.6 01:50:28 47° SSE 01:50:34 47° SSE 02:04:45 10° E visible
31 Aug 9.2 03:56:17 18° WSW 04:05:28 51° S 04:22:59 10° ESE visible
01 Sep 9.2 00:54:22 31° ESE 00:54:22 31° ESE 01:02:20 10° E visible
01 Sep 8.6 03:00:11 36° SW 03:04:43 52° S 03:20:47 10° ESE visible
01 Sep 9.9 23:58:18 14° ESE 23:58:18 14° ESE 00:00:04 10° E visible
02 Sep 8.4 02:04:07 49° S 02:04:22 49° S 02:18:28 10° ESE visible
02 Sep 9.3 04:09:56 15° WSW 04:19:19 45° SSW 04:36:01 10° SE visible
